Stations météo

réclame
Mon MeteoGroup
Schleswig-Jagel, Allemagne (10037): Température de l'air & dewpoint: 15.06.2018 12:00:00 - 21.06.2018 12:00:00 (CEST)Schleswig-Jagel, Allemagne (10037): Vitesse du vent & gusts: 15.06.2018 12:00:00 - 21.06.2018 12:00:00 (CEST)Schleswig-Jagel, Allemagne (10037): Direction du vent: 15.06.2018 12:00:00 - 21.06.2018 12:00:00 (CEST)Schleswig-Jagel, Allemagne (10037): reduced air pressure: 15.06.2018 12:00:00 - 21.06.2018 12:00:00 (CEST)Schleswig-Jagel, Allemagne (10037): visibility: 15.06.2018 12:00:00 - 21.06.2018 12:00:00 (CEST)
Date & Time tt [°C] td [°C] ff [km/h] ff [knt] fx [km/h] fx [knt] dd ppp [hPa] vv [km]
21.06.2018 12:00:00 - - - - - - - - -
21.06.2018 11:00:00 13,2 10,6 14 8 - - WSW 1010,0 12
21.06.2018 10:00:00 12,8 10,2 11 6 - - W 1010,1 20
21.06.2018 09:00:00 12,2 10,1 11 6 - - WNW 1010,5 15
21.06.2018 08:00:00 12,6 10,3 14 8 - - WNW 1010,9 20
21.06.2018 07:00:00 12,7 11,0 11 6 - - WNW 1011,0 20
21.06.2018 06:00:00 12,4 10,9 9 5 - - WNW 1011,4 10
21.06.2018 05:00:00 13,2 11,6 22 12 - - NW 1011,9 7
21.06.2018 04:00:00 14,2 13,3 18 10 - - WNW 1012,1 8
21.06.2018 03:00:00 15,5 14,8 14 8 - - WSW 1012,3 6
21.06.2018 02:00:00 15,8 15,3 22 12 - - WSW 1012,8 7
21.06.2018 01:00:00 16,1 15,5 22 12 - - W 1013,5 2,0
21.06.2018 00:00:00 16,7 15,1 22 12 - - WSW 1014,0 7
20.06.2018 23:00:00 16,6 14,8 18 10 - - WSW 1014,5 9
20.06.2018 22:00:00 17,4 14,9 22 12 - - W 1014,7 9
20.06.2018 21:00:00 18,8 14,9 29 16 47 25 W 1014,7 9
20.06.2018 20:00:00 19,9 15,5 32 18 - - W 1015,2 8
20.06.2018 19:00:00 20,2 15,8 36 19 50 27 W 1015,6 7
20.06.2018 18:00:00 21,7 16,8 28 15 - - W 1015,9 10
20.06.2018 17:00:00 22,7 17,0 29 16 - - W 1016,3 15
20.06.2018 16:00:00 23,9 15,3 40 21 50 27 WSW 1016,3 20
20.06.2018 15:00:00 24,5 15,9 36 19 50 27 SW 1016,6 20
20.06.2018 14:00:00 23,1 15,8 32 18 - - WSW 1017,3 20
20.06.2018 13:00:00 22,9 16,4 36 19 50 27 WSW 1018,0 18
20.06.2018 12:00:00 22,3 15,8 32 18 50 27 WSW 1018,4 18
20.06.2018 11:00:00 20,6 15,6 25 14 - - SW 1018,9 18
20.06.2018 10:00:00 20,1 15,2 29 16 - - SW 1019,2 12
20.06.2018 09:00:00 18,1 14,5 22 12 - - SSW 1019,5 12
20.06.2018 08:00:00 15,2 12,4 11 6 - - SSW 1020,1 12
20.06.2018 07:00:00 13,9 11,2 18 10 - - S 1020,2 12
20.06.2018 06:00:00 12,6 10,8 14 8 - - S 1020,9 12
20.06.2018 05:00:00 12,0 10,2 14 8 - - S 1021,1 11
20.06.2018 04:00:00 11,6 10,2 11 6 - - S 1021,3 10
20.06.2018 03:00:00 11,2 9,9 7 4 - - SSW 1021,9 11
20.06.2018 02:00:00 10,5 9,4 4 2 - - SW 1022,2 12
20.06.2018 01:00:00 10,8 9,4 4 2 - - N 1022,5 11
20.06.2018 00:00:00 11,0 9,2 11 6 - - SW 1022,7 11
19.06.2018 23:00:00 11,6 9,2 11 6 - - WSW 1022,8 10
19.06.2018 22:00:00 13,6 9,5 14 8 - - W 1022,5 20
19.06.2018 21:00:00 15,6 9,6 22 12 - - WSW 1022,0 20
19.06.2018 20:00:00 16,3 8,8 25 14 - - W 1022,1 20
19.06.2018 19:00:00 16,9 8,0 25 14 - - WNW 1021,8 20
19.06.2018 18:00:00 17,4 7,8 29 16 - - WNW 1021,8 20
19.06.2018 17:00:00 18,0 9,7 32 18 - - WNW 1021,6 20
19.06.2018 16:00:00 18,5 9,5 32 18 47 25 WNW 1021,1 20
19.06.2018 15:00:00 18,7 10,2 29 16 47 25 WNW 1020,6 20
19.06.2018 14:00:00 18,8 9,1 32 18 - - W 1020,3 18
19.06.2018 13:00:00 18,7 13,2 29 16 - - W 1019,7 18
19.06.2018 12:00:00 18,4 14,0 24 13 - - W 1019,3 10
19.06.2018 11:00:00 16,8 14,2 22 12 - - W 1019,1 9
19.06.2018 10:00:00 16,5 15,0 22 12 - - WSW 1018,3 10
19.06.2018 09:00:00 16,1 15,2 25 14 - - WSW 1017,8 7
19.06.2018 08:00:00 16,7 14,6 25 14 - - WSW 1017,0 8
19.06.2018 07:00:00 16,3 14,4 22 12 - - WSW 1016,6 9
19.06.2018 06:00:00 15,8 14,0 22 12 - - WSW 1016,7 9
19.06.2018 05:00:00 15,5 14,0 18 10 - - SW 1016,5 9
19.06.2018 04:00:00 15,1 14,1 14 8 - - SW 1016,7 8
19.06.2018 03:00:00 14,7 13,8 18 10 - - WSW 1016,9 8
19.06.2018 02:00:00 14,6 13,7 18 10 - - WSW 1017,1 9
19.06.2018 01:00:00 15,3 14,0 22 12 - - WSW 1017,1 9
19.06.2018 00:00:00 15,5 14,4 18 10 - - WSW 1017,2 9
18.06.2018 23:00:00 16,0 14,3 18 10 - - WSW 1017,1 9
18.06.2018 22:00:00 16,3 14,1 18 10 - - WSW 1016,7 9
18.06.2018 21:00:00 17,0 14,1 18 10 - - SW 1016,9 10
18.06.2018 20:00:00 17,9 13,7 22 12 - - WSW 1016,7 15
18.06.2018 19:00:00 18,2 14,5 25 14 - - WSW 1016,7 14
18.06.2018 18:00:00 18,2 14,8 29 16 - - WSW 1016,8 12
18.06.2018 17:00:00 17,3 15,4 25 14 - - SW 1017,1 9
18.06.2018 16:00:00 16,6 15,8 14 8 - - SSW 1017,4 5
18.06.2018 15:00:00 17,2 13,9 25 14 - - SW 1017,5 9
18.06.2018 14:00:00 17,1 14,0 25 14 - - SW 1017,5 8
18.06.2018 13:00:00 17,9 12,9 29 16 - - SW 1017,4 12
18.06.2018 12:00:00 17,3 12,0 22 12 - - SW 1017,3 15
18.06.2018 11:00:00 17,4 11,7 25 14 - - SW 1017,2 15
18.06.2018 10:00:00 17,0 12,0 25 14 - - SW 1017,4 12
18.06.2018 09:00:00 15,7 12,4 18 10 - - SSW 1017,5 12
18.06.2018 08:00:00 15,6 12,9 14 8 - - SSW 1017,4 12
18.06.2018 07:00:00 13,9 12,7 14 8 - - S 1017,2 12
18.06.2018 06:00:00 13,0 12,3 14 8 - - S 1017,5 12
18.06.2018 05:00:00 13,0 12,2 11 6 - - S 1017,5 5
18.06.2018 04:00:00 12,3 11,4 11 6 - - S 1017,5 5
18.06.2018 03:00:00 11,6 10,7 7 4 - - SSW 1018,0 5
18.06.2018 02:00:00 12,5 11,2 11 6 - - SSW 1017,6 5
18.06.2018 01:00:00 11,8 10,9 11 6 - - SSW 1017,6 6
18.06.2018 00:00:00 12,2 10,8 11 6 - - SSW 1017,4 6
17.06.2018 23:00:00 13,0 10,6 11 6 - - WSW 1017,3 6
17.06.2018 22:00:00 15,1 10,2 11 6 - - W 1017,1 6
17.06.2018 21:00:00 17,0 9,4 22 12 - - W 1016,7 6
17.06.2018 20:00:00 16,8 9,4 22 12 - - W 1016,6 7
17.06.2018 19:00:00 17,6 8,1 29 16 - - W 1016,0 7
17.06.2018 18:00:00 18,3 8,6 25 14 - - W 1015,8 7
17.06.2018 17:00:00 18,0 9,0 29 16 - - W 1015,6 7
17.06.2018 16:00:00 18,7 9,3 25 14 - - W 1015,1 7
17.06.2018 15:00:00 17,3 7,5 29 16 - - W 1014,7 7
17.06.2018 14:00:00 18,7 12,0 32 18 - - W 1013,9 6
17.06.2018 13:00:00 18,0 13,0 29 16 - - WSW 1013,7 6
17.06.2018 12:00:00 17,9 12,2 29 16 - - WSW 1013,3 6
17.06.2018 11:00:00 17,8 12,5 25 14 - - SW 1013,0 6
17.06.2018 10:00:00 17,8 12,0 25 14 - - SW 1013,0 6
17.06.2018 09:00:00 17,0 12,1 22 12 - - SW 1012,8 6
17.06.2018 08:00:00 15,7 11,9 14 8 - - SW 1012,7 5
17.06.2018 07:00:00 15,0 13,9 14 8 - - SW 1012,8 4,8
17.06.2018 06:00:00 13,6 13,0 7 4 - - S 1012,7 4,1
17.06.2018 05:00:00 13,8 13,2 7 4 - - S 1012,9 4,7
17.06.2018 04:00:00 13,7 12,9 11 6 - - S 1013,2 5
17.06.2018 03:00:00 13,8 12,8 7 4 - - SW 1013,4 3,7
17.06.2018 02:00:00 14,5 13,5 14 8 - - WSW 1013,7 2,9
17.06.2018 01:00:00 15,9 14,3 7 4 - - WSW 1013,2 4,9
17.06.2018 00:00:00 15,5 13,8 4 2 - - SW 1013,2 5
16.06.2018 23:00:00 16,3 14,1 7 4 - - SW 1013,6 5
16.06.2018 22:00:00 17,3 14,5 4 2 - - SSW 1013,3 5
16.06.2018 21:00:00 18,7 13,5 7 4 - - W 1013,2 14
16.06.2018 20:00:00 19,3 13,5 11 6 - - WNW 1013,1 12
16.06.2018 19:00:00 19,9 13,8 18 10 - - WNW 1012,8 12
16.06.2018 18:00:00 20,3 16,5 7 4 - - NNE 1012,6 5
16.06.2018 17:00:00 20,0 16,6 11 6 - - NE 1012,9 5
16.06.2018 16:00:00 19,5 16,4 14 8 - - ENE 1013,4 6
16.06.2018 15:00:00 17,8 16,1 7 4 - - E 1013,6 4,8
16.06.2018 14:00:00 19,7 16,7 14 8 - - NNE 1013,8 6
16.06.2018 13:00:00 15,7 14,4 29 16 - - NW 1015,0 2,5
16.06.2018 12:00:00 20,7 12,9 11 6 - - ESE 1014,6 12
16.06.2018 11:00:00 18,5 11,6 11 6 - - ESE 1015,2 12
16.06.2018 10:00:00 18,3 11,4 14 8 - - ESE 1015,3 12
16.06.2018 09:00:00 17,8 10,7 14 8 - - ESE 1015,4 12
16.06.2018 08:00:00 16,8 9,7 14 8 - - ESE 1015,6 6
16.06.2018 07:00:00 15,8 8,5 7 4 - - ESE 1015,9 7
16.06.2018 06:00:00 14,9 7,3 11 6 - - E 1016,1 7
16.06.2018 05:00:00 14,7 8,5 11 6 - - E 1016,5 7
16.06.2018 04:00:00 14,6 10,1 11 6 - - SE 1017,2 5
16.06.2018 03:00:00 14,1 10,3 7 4 - - ENE 1017,2 4,5
16.06.2018 02:00:00 14,1 9,6 7 4 - - E 1017,3 4,4
16.06.2018 01:00:00 14,5 9,0 4 2 - - ESE 1017,3 6
16.06.2018 00:00:00 14,5 8,9 7 4 - - E 1017,2 5
15.06.2018 23:00:00 15,4 8,5 7 4 - - ESE 1017,5 4,3
15.06.2018 22:00:00 16,6 6,7 4 2 - - NNE 1017,5 7
15.06.2018 21:00:00 18,3 6,0 7 4 - - NNW 1017,4 6
15.06.2018 20:00:00 19,3 5,4 11 6 - - WNW 1017,3 7
15.06.2018 19:00:00 19,6 5,3 14 8 - - NW 1017,6 7
15.06.2018 18:00:00 20,1 5,2 14 8 - - NW 1017,6 7
15.06.2018 17:00:00 20,1 6,0 18 10 - - W 1017,7 7
15.06.2018 16:00:00 20,3 6,5 14 8 - - WNW 1017,6 7
15.06.2018 15:00:00 20,5 6,1 18 10 - - W 1017,6 7
15.06.2018 14:00:00 19,6 3,8 14 8 - - W 1017,6 7
15.06.2018 13:00:00 18,9 7,0 14 8 - - W 1017,6 7
15.06.2018 12:00:00 18,8 7,2 14 8 - - W 1017,4 25

tt = Température de l'air
td = dewpoint
ff = Vitesse du vent
fx = gusts
dd = Direction du vent
ppp = reduced air pressure
vv = visibility

stations d'obs. à proximité